Windsor, Ontario

2:13 AM EST on December 08, 2016 (GMT -0500)
Windsor

Weather History for CYQG - March, 2013

Change the Weather History Date:

Thursday, March 28, 2013

  Actual Average Record
Temperature  
Mean Temperature 42 °F -  
Max Temperature 50 °F 48 °F 69 °F (2003)
Min Temperature 33 °F 33 °F 16 °F (2015)
Degree Days  
Heating Degree Days 24    
Moisture  
Dew Point 25 °F    
Average Humidity 51    
Maximum Humidity 65    
Minimum Humidity 33    
Precipitation  
Precipitation 0.00 in - - ()
Sea Level Pressure  
Sea Level Pressure 30.23 in    
Wind  
Wind Speed 8 mph ()    
Max Wind Speed 13 mph    
Max Gust Speed -    
Visibility 15.0 miles    
Events      
Averages and records for this station are not official NWS values.
T = Trace of Precipitation, MM = Missing Value Source: Averaged Metar Reports

Daily Weather History Graph

Daily Weather History Graph

Search for Another Location

Airport or City:

Trip Planner

Search our weather history database for the weather conditions in past years. The results will help you decide how hot, cold, wet, or windy it might be!

Date:

Astronomy

Mar. 28, 2013 Rise Set
Actual Time 7:20 AM EDT 7:53 PM EDT
Civil Twilight 6:52 AM EDT 8:21 PM EDT
Nautical Twilight 6:19 AM EDT 8:54 PM EDT
Astronomical Twilight 5:45 AM EDT 9:29 PM EDT
Moon 9:46 PM EDT (3/28) 7:46 AM EDT (3/28)
Length of Visible Light 13h 28m
Length of Day
12h 32m
Full, 98% of the Moon is Illuminated
Mar 28
Full
Apr 3
Last Quarter
Apr 10
New
Apr 18
First Quarter
Apr 25
Full

Hourly Weather History & Observations

Time (EDT) Temp. Windchill Dew Point Humidity Pressure Visibility Wind Dir Wind Speed Gust Speed Precip Events Conditions
12:00 AM 41.0 °F 33.9 °F 24.8 °F 53% 30.19 in 15.0 mi WNW 12.7 mph - N/A   Overcast
1:00 AM 39.2 °F 31.6 °F 24.8 °F 56% 30.20 in 15.0 mi WNW 12.7 mph - N/A   Overcast
2:00 AM 39 °F - 23 °F 40% 30.20 in 15 mi WNW 10.4 mph - -   Overcast
2:00 AM 39.2 °F 31.6 °F 23.0 °F 52% 30.20 in 15.0 mi WNW 12.7 mph - N/A   Overcast
3:00 AM 39.2 °F 33.0 °F 23.0 °F 52% 30.20 in 15.0 mi WNW 9.2 mph - N/A   Mostly Cloudy
4:00 AM 37.4 °F 30.3 °F 23.0 °F 56% 30.19 in 15.0 mi WNW 10.4 mph - N/A   Mostly Cloudy
5:00 AM 35.6 °F 28.6 °F 21.2 °F 56% 30.20 in 15.0 mi WNW 9.2 mph - N/A   Partly Cloudy
6:00 AM 33.8 °F 27.0 °F 21.2 °F 60% 30.21 in 15.0 mi NW 8.1 mph - N/A   Mostly Cloudy
7:00 AM 33.8 °F 25.8 °F 23.0 °F 65% 30.22 in 15.0 mi WNW 10.4 mph - N/A   Mostly Cloudy
8:00 AM 34 °F - 23 °F 52% 30.24 in 15 mi NW 9.2 mph - -   Mostly Cloudy
8:00 AM 33.8 °F 25.8 °F 23.0 °F 65% 30.24 in 15.0 mi NW 10.4 mph - N/A   Mostly Cloudy
9:00 AM 35.6 °F 28.0 °F 24.8 °F 65% 30.25 in 15.0 mi NW 10.4 mph - N/A   Mostly Cloudy
10:00 AM 37.4 °F 29.8 °F 24.8 °F 60% 30.26 in 15.0 mi NNW 11.5 mph - N/A   Mostly Cloudy
11:00 AM 39.2 °F 34.2 °F 26.6 °F 61% 30.27 in 15.0 mi NW 6.9 mph - N/A   Mostly Cloudy
12:00 PM 41.0 °F 35.8 °F 26.6 °F 57% 30.27 in 15.0 mi NW 8.1 mph - N/A   Mostly Cloudy
1:00 PM 44.6 °F 39.7 °F 26.6 °F 49% 30.27 in 15.0 mi NNW 9.2 mph - N/A   Mostly Cloudy
2:00 PM 46 °F - 26 °F 33% 30.26 in 15 mi WNW 11.5 mph - -   Mostly Cloudy
2:00 PM 46.4 °F 42.4 °F 26.6 °F 46% 30.26 in 15.0 mi NW 8.1 mph - N/A   Mostly Cloudy
3:00 PM 46.4 °F 41.9 °F 24.8 °F 43% 30.25 in 15.0 mi NNW 9.2 mph - N/A   Mostly Cloudy
4:00 PM 50.0 °F - 24.8 °F 37% 30.23 in 15.0 mi NNE 3.5 mph - N/A   Mostly Cloudy
5:00 PM 50.0 °F - 23.0 °F 35% 30.23 in 15.0 mi NW 4.6 mph - N/A   Mostly Cloudy
6:00 PM 48.2 °F - 26.6 °F 43% 30.22 in 15.0 mi NNE 2.3 mph - N/A   Mostly Cloudy
7:00 PM 48.2 °F - 26.6 °F 43% 30.24 in 15.0 mi South 5.8 mph - N/A   Mostly Cloudy
8:00 PM 46 °F - 26 °F 33% 30.25 in 15 mi SSW 6.9 mph - -   Mostly Cloudy
8:00 PM 46.4 °F 42.9 °F 26.6 °F 46% 30.25 in 15.0 mi SSW 6.9 mph - N/A   Mostly Cloudy
9:00 PM 42.8 °F 38.6 °F 26.6 °F 53% 30.25 in 15.0 mi SSW 6.9 mph - N/A   Overcast
10:00 PM 42.8 °F 41.1 °F 26.6 °F 53% 30.26 in 15.0 mi SSW 3.5 mph - N/A   Overcast
11:00 PM 41.0 °F 39.0 °F 28.4 °F 61% 30.27 in 15.0 mi SW 3.5 mph - N/A   Mostly Cloudy